Simultaneous Nadir Overpasses (SNOs) Predictions

Prediction of SNOs between NOAA-19 and TERRA Satellite Orbit:

Table of predicted SNOs for the next 14.0 days since TLE Epoch: 12/28/2019
Index Date (NOAA-19) Time (NOAA-19) Lat,Lon (NOAA-19) SZA (NOAA-19 ) Date (TERRA) Time (TERRA) Lat,Lon (TERRA) SZA (TERRA ) Distance(km) Time Diff (sec)
1 12/30/2019 01:26:16 -79.06, 3.81 76.86 12/30/2019 01:26:25 -79.06, 3.82 76.86 1.05 9
2 01/01/2020 06:59:43 79.08, 100.44 102.98 01/01/2020 07:00:08 79.07, 100.47 102.99 0.99 25
3 01/01/2020 07:50:37 -79.05, -92.11 77.03 01/01/2020 07:49:36 -79.03, -92.13 77.08 2.76 61
4 01/03/2020 12:32:59 -79.10,-162.97 77.22 01/03/2020 12:33:52 -79.08,-162.91 77.22 2.47 53
5 01/03/2020 13:24:04 79.06, 4.54 102.77 01/03/2020 13:23:19 79.04, 4.50 102.73 2.83 45
6 01/05/2020 18:06:26 79.11, -66.32 102.54 01/05/2020 18:07:35 79.09, -66.30 102.54 2.51 69
7 01/05/2020 18:57:19 -79.06, 101.38 77.49 01/05/2020 18:57:02 -79.09, 101.36 77.46 3.68 17
8 01/08/2020 00:30:46 79.07,-161.98 102.24 01/08/2020 00:30:45 79.09,-162.06 102.26 3.03 1
9 01/10/2020 06:04:02 -79.09, -65.40 78.07 01/10/2020 06:04:29 -79.10, -65.44 78.06 1.38 27




NCC Satellite Simultaneous Nadir Overpasses (SNOs) Prediction Service
